Flag for South Korea Weather past 2 weeks in Busan, South Korea

Now
59 °F

Fog.


Feels Like: 60 °F
Forecast: 52 / 60 °F
Wind: 3 mph from South

Location: Pusan / Kimhae International Airport

Current Time: Mar 31, 2015 at 11:55:04 AM

Latest Report: Mar 31, 2015 at 11:00 AM


Visibility: 3 mi

Pressure: 30.09 "Hg

Humidity: 88%

Dew point: 55 °F

Location of BusanLocation

Historic Weather in Busan — Graph

°F

Busan temperature yesterday

Maximum temperature yesterday: 66 °F (at 1:00 PM)
Minimum temperature yesterday: 45 °F (at 6:02 AM)
Average temperature yesterday: 57 °F

Past Weeks' High & Low Weather Summary

 TemperatureHumidityPressure
High70 °F (Mar 29, 2:00 PM)94% (Mar 18, 12:55 AM)30.59 "Hg (Mar 18, 12:55 AM)
Low34 °F (Mar 25, 5:00 AM)12% (Mar 22, 3:00 PM)29.68 "Hg (Mar 18, 4:00 PM)
Average53 °F58%30.15 "Hg
* Reported Mar 16 10:00 AM — Mar 31 10:00 AM, Busan, Weather by CustomWeather, © 2015

Note: Actual official high and low records may vary slightly from our data, if they occured in-between our weather recording intervals... More about our weather records

Advertising

Busan weather history for previous 24 hours

 ConditionsComfort  
Time TempWeatherWind HumidityBarometerVisibility
10:00 AM
Tue, Mar 31
59 °FFog.6 mph88%30.09 "Hg2 mi
9:00 AM59 °FFog.6 mph82%30.09 "Hg1 mi
8:00 AM55 °FFog.1 mph82%30.09 "Hg1 mi
7:00 AM50 °FFog.1 mph94%30.09 "Hg1 mi
6:00 AM48 °FFog.1 mph94%30.09 "Hg2 mi
5:00 AM48 °FFog.2 mph94%30.07 "Hg3 mi
3:56 AM48 °FFog.1 mph87%30.08 "Hg3 mi
2:56 AM50 °FFog.2 mph88%30.09 "Hg4 mi
1:55 AM50 °FFog.1 mph82%30.10 "Hg4 mi
12:55 AM52 °FFog.1 mph82%30.11 "Hg5 mi
11:55 PM
Mon, Mar 30
54 °FFog.1 mph77%30.11 "Hg5 mi
11:00 PM55 °FPassing clouds.3 mph72%30.09 "Hg6 mi
10:00 PM59 °FPassing clouds.3 mph68%30.12 "Hg6 mi
9:00 PM57 °FPassing clouds.5 mph67%30.12 "HgN/A
8:00 PM59 °FPassing clouds.7 mph68%30.09 "HgN/A
7:00 PM59 °FPassing clouds.7 mph68%30.07 "HgN/A
6:00 PM61 °FSunny.14 mph63%30.07 "Hg10 mi
5:00 PM64 °FPassing clouds.13 mph52%30.07 "HgN/A
4:00 PM64 °FSunny.15 mph56%30.07 "Hg10 mi
3:00 PM66 °FSunny.14 mph43%30.09 "Hg10 mi
2:00 PM66 °FSunny.15 mph40%30.12 "Hg10 mi
1:00 PM66 °FSunny.13 mph43%30.12 "Hg10 mi
12:00 PM64 °FSunny.10 mph49%30.15 "Hg10 mi
11:00 AM64 °FSunny.7 mph52%30.15 "Hg10 mi
Weather by CustomWeather, © 2015

See weather overviewHow to use our weather pages